Regional Weather Roundup
Issued by NWS

Home | Current Version | Previous Version | Graphics & Text | Print | Product List | Glossary On
Versions: 1 2 3 4 5 6 7 8 9 10 11 12 13 14 15 16 17 18 19 20 21 22 23 24 25 26 27 28 29 30 31 32 33 34 35 36 37 38 39 40 41 42 43 44 45 46 47 48 49 50
753
ASUS44 KJAN 010610
RWRMS

MISSISSIPPI HOURLY WEATHER ROUNDUP
NATIONAL WEATHER SERVICE JACKSON MS
1200 AM CST SUN FEB 01 2015

NOTE: "FAIR: INDICATES FEW OR NO CLOUDS BELOW 12,000 FEET WITH NO
SIGNIFICANT WEATHER AND/OR OBSTRUCTIONS TO VISIBILITY.

MSZ001>002-007>008-010>013-018>021-025>028-034>036-010700-
NORTHWEST MISSISSIPPI

CITY           SKY/WX    TMP DP  RH WIND       PRES   REMARKS
CLARKSDALE     FAIR      48  32  53 SE12      30.07F
CLEVELAND      FAIR      50  34  53 S10       30.07F
GREENWOOD      CLOUDY    52  27  38 S10       30.10F
6HR MIN TEMP:  51; 6HR MAX TEMP:  58;

GREENVILLE     CLOUDY    51  31  46 S13       30.07F
6HR MIN TEMP:  47; 6HR MAX TEMP:  52;

GRENADA        FAIR      48  28  46 SE8       30.10F
OLIVE BRANCH   MOCLDY    46  27  46 SE9       30.07F
OXFORD         FAIR      48  23  37 SE9       30.11F
TUNICA         CLOUDY    48  30  49 S10       30.07F
$$

MSZ003>006-009-014>017-022>024-029>033-037>039-010700-
NORTHEAST MISSISSIPPI

CITY           SKY/WX    TMP DP  RH WIND       PRES   REMARKS
COLUMBUS AFB   CLOUDY    43  27  52 SE6       30.16F
6HR MIN TEMP:  41; 6HR MAX TEMP:  48;

GOLDN TRIANGLE CLOUDY    46  27  46 S10       30.15F
STARKVILLE     FAIR      46  28  49 SE8       30.14F
TUPELO         CLOUDY    49  24  37 S9        30.13F
6HR MIN TEMP:  46; 6HR MAX TEMP:  51;

$$

MSZ040-058-010700-
CENTRAL MISSISSIPPI

CITY           SKY/WX    TMP DP  RH WIND       PRES   REMARKS
JACKSON INTL   CLOUDY    51  40  65 SE13      30.12F
6HR MIN TEMP:  46; 6HR MAX TEMP:  52;

JACKSON HAWKNS CLOUDY    53  41  63 SE12      30.12F
6HR MIN TEMP:  51; 6HR MAX TEMP:  56;

MERIDIAN KEY   MOCLDY    45  31  58 S3        30.18F
6HR MIN TEMP:  42; 6HR MAX TEMP:  54;

MERIDIAN NAS   CLOUDY    46  28  49 S3        30.18F
6HR MIN TEMP:  44; 6HR MAX TEMP:  52;

RAYMOND        FAIR      54  48  82 SE8       30.10F
VICKSBURG      CLOUDY    53  36  52 SE8       30.09F
6HR MIN TEMP:  50; 6HR MAX TEMP:  56;

$$

MSZ059>079-010700-
SOUTH MISSISSIPPI

CITY           SKY/WX    TMP DP  RH WIND       PRES   REMARKS
BROOKHAVEN     MOCLDY    52  46  82 SE6       30.13F
HATTIESBURG    PTCLDY    47  41  80 CALM      30.17F
6HR MIN TEMP:  46; 6HR MAX TEMP:  56;

MCCOMB         CLOUDY    51  46  83 SE8       30.12F
6HR MIN TEMP:  50; 6HR MAX TEMP:  53;

NATCHEZ        CLOUDY    54  45  71 SE15      30.09F
6HR MIN TEMP:  54; 6HR MAX TEMP:  57;

PINE BELT      PTCLDY    48  39  71 SE7       30.17F
6HR MIN TEMP:  43; 6HR MAX TEMP:  54;

$$

MSZ080>082-010700-
COASTAL MISSISSIPPI

CITY           SKY/WX    TMP DP  RH WIND       PRES   REMARKS
BILOXI         MOCLDY    50  47  92 E5        30.17F
6HR MIN TEMP:  50; 6HR MAX TEMP:  55;

PASCAGOULA     PTCLDY    44  42  93 CALM      30.18F
6HR MIN TEMP:  43; 6HR MAX TEMP:  52;

GULFPORT       PTCLDY    50  46  86 E7        30.16F
6HR MIN TEMP:  49; 6HR MAX TEMP:  55;

$$



USA.gov is the U.S. government's official web portal to all federal, state and local government web resources and services.